{"data":{"norad_id":57740,"intl_designator":"2023-131J","name":"STARLINK-30331","alt_names":[],"object_type":"PAYLOAD","status":"ACTIVE","operator":null,"country":"US","launch_date":"2023-09-01","launch_site_code":"AFETR","launch_vehicle":null,"mission":null,"orbit_class":"UNKNOWN","rcs_meters":null,"size_class":null,"mass_kg":null,"dimensions":null,"purposes":["comms"],"wikipedia_slug":null,"has_3d_model":false,"image_url":null,"decayed_at":null,"tle_current":{"epoch":"2026-09-20T04:59:00.830400Z","epoch_age_seconds":173813,"freshness":"STALE","line1":"1 57740U 23131J   26263.20764850 -.00000167  00000+0  34518-5 0  9994","line2":"2 57740  43.0032  80.8688 0001156 273.1589  86.9130 15.27586377170526","mean_motion":15.27586377,"eccentricity":0.0001156,"inclination_deg":43.0032,"raan_deg":80.8688,"arg_perigee_deg":273.1589,"mean_anomaly_deg":86.913,"bstar":3.4518e-6,"rev_number":17052,"period_min":94.266355191514,"perigee_km":482.23685016864,"apogee_km":483.82315197929,"semimajor_km":6861.167001074,"source":"CELESTRAK","updated_at":"2026-09-21T09:00:33.680002Z"}}}